This is the latest recevied weather packets stored in our database for station/object KB9GXK. If no packets are shown the sender has not sent any weather packets the latest 10 day(s).
| Time | Temp. | Humidity | Pressure | Rain* | Wind** | Luminosity | Snow |
|---|---|---|---|---|---|---|---|
| 1777308201 | 10° C | 92% | 1009.6 hPa | 0 mm | - | 133 W/m² | - |
| 1777307897 | 10° C | 92% | 1009.8 hPa | 0 mm | - | 93 W/m² | - |
| 1777307596 | 10° C | 91% | 1009.7 hPa | 0 mm | - | 40 W/m² | - |
| 1777307292 | 10° C | 91% | 1009.9 hPa | 0 mm | - | 54 W/m² | - |
| 1777306990 | 10° C | 91% | 1009.7 hPa | 0 mm | - | 132 W/m² | - |
| 1777306687 | 10° C | 91% | 1010.1 hPa | 0 mm | - | 69 W/m² | - |
| 1777306383 | 10° C | 91% | 1010 hPa | 1.78 mm | - | 85 W/m² | - |
| 1777306077 | 10° C | 90% | 1010.4 hPa | 1.78 mm | - | 96 W/m² | - |
| 1777305774 | 10° C | 90% | 1010.7 hPa | 4.32 mm | - | 86 W/m² | - |
| 1777305470 | 10° C | 90% | 1010.7 hPa | 8.89 mm | - | 61 W/m² | - |
| 1777305165 | 10° C | 89% | 1010.8 hPa | 6.1 mm | - | 37 W/m² | - |
| 1777304860 | 10° C | 88% | 1010.8 hPa | 0 mm | - | 60 W/m² | - |
| 1777304557 | 9.44° C | 87% | 1010.6 hPa | 0 mm | - | 52 W/m² | - |
| 1777304254 | 10° C | 86% | 1010.5 hPa | 0 mm | - | 52 W/m² | - |
| 1777303951 | 10° C | 86% | 1010.6 hPa | 0 mm | - | 54 W/m² | - |
| 1777303648 | 10° C | 86% | 1010.6 hPa | 0 mm | - | 29 W/m² | - |
| 1777303346 | 10° C | 86% | 1010.8 hPa | 0 mm | - | 52 W/m² | - |
| 1777303043 | 10° C | 86% | 1010.9 hPa | 0 mm | - | 86 W/m² | - |
| 1777302741 | 10° C | 87% | 1010.8 hPa | 0 mm | - | 107 W/m² | - |
| 1777302439 | 10° C | 87% | 1011.4 hPa | 0 mm | - | 151 W/m² | - |
| 1777302136 | 10° C | 87% | 1010.9 hPa | 0 mm | - | 174 W/m² | - |
| 1777301833 | 10° C | 88% | 1011.3 hPa | 0 mm | - | 144 W/m² | - |
| 1777301531 | 9.44° C | 88% | 1011.3 hPa | 0 mm | - | 180 W/m² | - |
| 1777301228 | 9.44° C | 88% | 1011.3 hPa | 0 mm | - | 112 W/m² | - |
| 1777300924 | 9.44° C | 88% | 1011.5 hPa | 0 mm | - | 71 W/m² | - |
* Rain latest hour (hover to see other rain measurements)
** Current wind speed in m/s (hover to see current wind gust speed)